Bueckeburg, Germany

10:49 AM CET on November 22, 2019 (GMT +0100)
Buckeburg Army

Weather History for ETHB - October, 2019

Change the Weather History Date:

Monday, October 21, 2019

  Actual Average (EDDV) Record (EDDV)
Temperature  
Mean Temperature 60 °F -  
Max Temperature 68 °F 54 °F 69 °F (2012)
Min Temperature 53 °F 42 °F 28 °F (1997)
Degree Days  
Heating Degree Days 4    
Growing Degree Days 10 (Base 50)    
Moisture  
Dew Point 54 °F    
Average Humidity 85    
Maximum Humidity 100    
Minimum Humidity 55    
Precipitation  
Precipitation 0.00 in - - ()
Sea Level Pressure  
Sea Level Pressure 29.98 in    
Wind  
Wind Speed 5 mph ()    
Max Wind Speed 12 mph    
Max Gust Speed -    
Visibility 3.9 miles    
Events Fog , Rain    
Averages and records for this station are not official NWS values.
T = Trace of Precipitation, MM = Missing Value Source: Averaged Metar Reports

Daily Weather History Graph

Daily Weather History Graph

Search for Another Location

Airport or City:

Astronomy

Oct. 21, 2019 Rise Set
Actual Time 7:58 AM CEST 6:17 PM CEST
Civil Twilight 7:23 AM CEST 6:51 PM CEST
Nautical Twilight 6:44 AM CEST 7:31 PM CEST
Astronomical Twilight 6:05 AM CEST 8:10 PM CEST
Moon 11:46 PM CEST (10/21) 3:32 PM CEST (10/21)
Length of Visible Light 11h 27m
Length of Day
10h 18m
Waning Gibbous, 51% of the Moon is Illuminated
Oct 21
Waning Gibbous
Oct 21
Last Quarter
Oct 28
New
Nov 4
First Quarter
Nov 12
Full

Hourly Weather History & Observations

Time (CEST) Temp. Dew Point Humidity Pressure Visibility Wind Dir Wind Speed Gust Speed Precip Events Conditions
12:20 AM 55.4 °F 55.4 °F 100% 29.83 in 0.5 mi ENE 5.8 mph - N/A Fog Fog
1:00 AM 55 °F 55 °F 100% 29.88 in 0 mi NE 4.5 mph - - Rain Light Rain
1:20 AM 55.4 °F 55.4 °F 100% 29.89 in 1.0 mi ENE 4.6 mph - N/A Rain Light Rain
2:20 AM 55.4 °F 55.4 °F 100% 29.86 in 0.6 mi ENE 5.8 mph - N/A   Mist
3:20 AM 55.4 °F 55.4 °F 100% 29.86 in 0.6 mi ENE 5.8 mph - N/A   Overcast
4:20 AM 55.4 °F 55.4 °F 100% 29.86 in 0.7 mi ENE 2.3 mph - N/A   Overcast
5:20 AM 55.4 °F 55.4 °F 100% 29.86 in 1.6 mi SSW 3.5 mph - N/A   Mostly Cloudy
5:31 AM 55.4 °F 55.4 °F 100% 29.86 in 2.2 mi SW 3.5 mph - N/A   Mostly Cloudy
6:04 AM 55.4 °F 53.6 °F 94% 29.89 in 1.2 mi WSW 1.2 mph - N/A Fog Fog
6:20 AM 55.4 °F 55.4 °F 100% 29.89 in 0.4 mi North 5.8 mph - N/A Fog Fog
6:45 AM 55.4 °F 55.4 °F 100% 29.89 in 0.6 mi NNE 4.6 mph - N/A Fog Fog
7:20 AM 55.4 °F 55.4 °F 100% 29.89 in 0.4 mi East 3.5 mph - N/A Fog Fog
8:20 AM 55.4 °F 53.6 °F 94% 29.92 in 0.2 mi Calm Calm - N/A Fog Fog
8:25 AM 55.4 °F 53.6 °F 94% 29.92 in 2.2 mi Variable 1.2 mph - N/A Fog , Rain Light Rain Showers
8:36 AM 55.4 °F 55.4 °F 100% 29.95 in 3.1 mi SSW 5.8 mph - N/A Fog , Rain Light Rain Showers
8:49 AM 55.4 °F 55.4 °F 100% 29.95 in 5.6 mi South 6.9 mph - N/A Rain Light Rain Showers
9:20 AM 57.2 °F 55.4 °F 94% 29.95 in 6.2 mi South 4.6 mph - N/A   Scattered Clouds
10:00 AM 57 °F 56 °F 93% 29.96 in 12 mi South 4.5 mph - - Rain Light Rain Showers
10:20 AM 57.2 °F 55.4 °F 94% 29.98 in 6.2 mi South 9.2 mph - N/A   Mostly Cloudy
11:20 AM 59.0 °F 55.4 °F 88% 29.98 in 6.2 mi South 10.4 mph - N/A   Mostly Cloudy
12:00 PM 61 °F 56 °F 80% 30.01 in 25 mi South 11.2 mph - - Rain Light Rain Showers
12:20 PM 60.8 °F 57.2 °F 88% 30.01 in 6.2 mi South 8.1 mph - N/A   Scattered Clouds
1:00 PM 64 °F 57 °F 70% 30.01 in 25 mi SSW 11.2 mph - -   Scattered Clouds
1:20 PM 64.4 °F 57.2 °F 77% 30.01 in 6.2 mi SW 9.2 mph - N/A   Scattered Clouds
2:20 PM 68.0 °F 55.4 °F 64% 30.01 in 6.2 mi SW 11.5 mph - N/A   Scattered Clouds
3:20 PM 66.2 °F 53.6 °F 64% 30.04 in 6.2 mi WSW 11.5 mph - N/A   Mostly Cloudy
4:00 PM 65 °F 53 °F 57% 30.04 in 25 mi WSW 11.2 mph - -   Scattered Clouds
4:20 PM 66.2 °F 53.6 °F 64% 30.04 in 6.2 mi SW 8.1 mph - N/A   Mostly Cloudy
5:20 PM 66.2 °F 51.8 °F 60% 30.04 in 6.2 mi SW 9.2 mph - N/A   Mostly Cloudy
6:00 PM 64 °F 52 °F 55% 30.06 in 25 mi SW 6.7 mph - -   Scattered Clouds
6:20 PM 62.6 °F 51.8 °F 68% 30.06 in 6.2 mi SW 5.8 mph - N/A   Scattered Clouds
7:00 PM 60 °F 51 °F 64% 30.08 in 25 mi SSW 6.7 mph - -   Scattered Clouds
7:20 PM 59.0 °F 50.0 °F 72% 30.09 in 6.2 mi SW 6.9 mph - N/A   Scattered Clouds
8:20 PM 59.0 °F 51.8 °F 77% 30.12 in 6.2 mi West 9.2 mph - N/A   Scattered Clouds
9:20 PM 53.6 °F 50.0 °F 88% 30.12 in 6.2 mi West 6.9 mph - N/A   Scattered Clouds
10:00 PM 54 °F 51 °F 85% 30.15 in 25 mi WSW 6.7 mph - -   Mostly Cloudy
10:20 PM 55.4 °F 48.2 °F 77% 30.12 in 6.2 mi WSW 8.1 mph - N/A   Partly Cloudy
11:20 PM 53.6 °F 46.4 °F 77% 30.15 in 6.2 mi SW 9.2 mph - N/A   Scattered Clouds